KC5ZJO-1 Weather Reports


time (UTC)temp
C
wind
direction
speed
KPH
gust
KPH
rain 1hr
cm
rain 24hr
cm
rain mn
cm
humidity
%
barometer
mb
20260504130503 11 191 0.0 0.0 0.00 0.00 0.00 83 1016.9
20260504110503 11 191 0.0 0.0 0.00 0.00 0.00 83 1016.9
20260504100503 11 191 0.0 0.0 0.00 0.00 0.00 83 1016.9
20260504082004 11 191 0.0 0.0 0.00 0.00 0.00 83 1016.9
20260504081503 11 191 0.0 0.0 0.00 0.00 0.00 83 1016.9
20260504081024 11 191 0.0 0.0 0.00 0.00 0.00 83 1016.9
20260504080503 11 191 0.0 0.0 0.00 0.00 0.00 83 1016.9
20260504050503 11 191 0.0 0.0 0.00 0.00 0.00 83 1016.9
20260504050003 11 191 0.0 0.0 0.00 0.00 0.00 83 1016.9
20260504045503 11 191 0.0 8.0 0.00 0.00 0.00 83 1016.9
20260504045004 11 191 0.0 8.0 0.00 0.00 0.00 83 1016.9
20260504044503 11 178 0.0 6.4 0.00 0.00 0.00 83 1016.9
20260504044004 11 260 0.0 0.0 0.00 0.00 0.00 83 1016.9
20260504043503 11 260 0.0 0.0 0.00 0.00 0.00 83 1016.9
20260504043003 11 260 0.0 0.0 0.00 0.00 0.00 82 1016.9
20260504042504 11 260 0.0 0.0 0.00 0.00 0.00 82 1017.0
20260504042004 11 260 0.0 0.0 0.00 0.00 0.00 82 1016.9
20260504041503 11 260 0.0 0.0 0.00 0.00 0.00 82 1016.7
20260504041004 11 260 0.0 0.0 0.00 0.00 0.00 82 1016.6
20260504040503 11 260 0.0 0.0 0.00 0.00 0.00 83 1016.6
20260504040004 11 260 0.0 0.0 0.00 0.00 0.00 82 1016.7
20260504035504 11 260 0.0 0.0 0.00 0.00 0.00 83 1016.7
20260504035004 11 260 0.0 0.0 0.00 0.00 0.00 83 1016.8
20260504034503 11 260 0.0 0.0 0.00 0.00 0.00 82 1016.9
20260504034004 11 260 0.0 0.0 0.00 0.00 0.00 82 1016.9
20260504033504 11 260 0.0 0.0 0.00 0.00 0.00 82 1017.0
20260504033004 11 260 0.0 0.0 0.00 0.00 0.00 81 1017.0
20260504032525 11 260 0.0 0.0 0.00 0.00 0.00 81 1017.1
20260504032004 11 260 0.0 0.0 0.00 0.00 0.00 80 1017.4
20260504031526 11 260 0.0 0.0 0.00 0.00 0.00 80 1017.5
20260504031005 11 260 0.0 0.0 0.00 0.00 0.00 80 1017.5
20260504030503 11 260 0.0 0.0 0.00 0.00 0.00 80 1017.5
20260504030024 11 260 0.0 0.0 0.00 0.00 0.00 79 1017.6
20260504025524 11 260 0.0 0.0 0.00 0.00 0.00 79 1017.6
20260504025024 11 260 0.0 0.0 0.00 0.00 0.00 78 1017.6
20260504024503 11 260 0.0 0.0 0.00 0.00 0.00 78 1017.5
20260504024025 11 260 0.0 0.0 0.00 0.00 0.00 78 1017.5
20260504023504 11 260 0.0 0.0 0.00 0.00 0.00 77 1017.4
20260504023003 11 260 0.0 0.0 0.00 0.00 0.00 77 1017.4
20260504022524 12 260 0.0 0.0 0.00 0.00 0.00 77 1017.4
20260504022004 12 260 0.0 0.0 0.00 0.00 0.00 77 1017.4
20260504021504 12 260 0.0 0.0 0.00 0.00 0.00 76 1017.2
20260504021004 12 260 0.0 0.0 0.00 0.00 0.00 74 1017.2
20260504020503 12 260 0.0 0.0 0.00 0.00 0.00 74 1017.1
20260504020003 12 260 0.0 0.0 0.00 0.00 0.00 74 1017.0
20260504015503 12 260 0.0 0.0 0.00 0.00 0.00 72 1017.0
20260504015004 12 260 0.0 0.0 0.00 0.00 0.00 72 1016.9
20260504014503 12 260 0.0 0.0 0.00 0.00 0.00 71 1016.8
20260504014024 12 260 0.0 0.0 0.00 0.00 0.00 70 1016.7
20260504013503 13 260 0.0 0.0 0.00 0.00 0.00 69 1016.6
20260504013003 13 260 0.0 0.0 0.00 0.00 0.00 69 1016.5
20260504012503 13 260 0.0 0.0 0.00 0.00 0.00 68 1016.4
20260504012005 13 260 0.0 0.0 0.00 0.00 0.00 68 1016.4
20260504011503 13 260 0.0 0.0 0.00 0.00 0.00 67 1016.4
20260504011024 13 260 0.0 0.0 0.00 0.00 0.00 66 1016.3
20260504010503 14 260 0.0 0.0 0.00 0.00 0.00 66 1016.3
20260504010004 15 260 0.0 0.0 0.00 0.00 0.00 64 1016.3
20260504005504 15 260 0.0 0.0 0.00 0.00 0.00 63 1016.4
20260504005046 15 260 0.0 0.0 0.00 0.00 0.00 62 1016.4
20260504004503 15 260 0.0 0.0 0.00 0.00 0.00 60 1016.3
20260504004003 16 260 0.0 0.0 0.00 0.00 0.00 59 1016.3
20260504003504 16 260 0.0 0.0 0.00 0.00 0.00 59 1016.3
20260504003003 16 260 0.0 0.0 0.00 0.00 0.00 58 1016.3
20260504002504 17 260 0.0 0.0 0.00 0.00 0.00 56 1016.3
20260504002003 17 260 0.0 0.0 0.00 0.00 0.00 55 1016.5
20260504001503 18 260 0.0 0.0 0.00 0.00 0.00 54 1016.5
20260504001003 18 260 0.0 3.2 0.00 0.00 0.00 52 1016.5
20260504000503 18 260 0.0 3.2 0.00 0.00 0.00 51 1016.5
20260504000003 18 259 0.0 3.2 0.00 0.00 0.00 50 1016.5
20260503235503 19 309 0.0 9.7 0.00 0.00 0.00 50 1016.6
20260503235003 19 309 0.0 16.1 0.00 0.00 0.00 49 1016.6
20260503234504 19 311 9.7 16.1 0.00 0.00 0.00 49 1016.6
20260503234004 19 271 0.0 9.7 0.00 0.00 0.00 48 1016.6
20260503233504 19 336 0.0 11.3 0.00 0.00 0.00 49 1016.7
20260503233004 19 39 1.6 12.9 0.00 0.00 0.00 49 1016.7
20260503232503 19 297 6.4 12.9 0.00 0.00 0.00 48 1016.7
20260503231525 20 230 6.4 19.3 0.00 0.00 0.00 47 1016.8
20260503231003 20 289 6.4 19.3 0.00 0.00 0.00 48 1016.9
20260503230503 20 295 9.7 19.3 0.00 0.00 0.00 47 1016.8
20260503230003 20 275 8.0 17.7 0.00 0.00 0.00 47 1016.8
20260503225525 20 330 8.0 17.7 0.00 0.00 0.00 48 1016.9
20260503225003 20 327 9.7 19.3 0.00 0.00 0.00 48 1016.9
20260503224504 20 324 6.4 19.3 0.00 0.00 0.00 40 1016.9
20260503224004 20 313 9.7 16.1 0.00 0.00 0.00 40 1016.9
20260503223503 20 247 9.7 17.7 0.00 0.00 0.00 39 1016.9
20260503222504 20 345 4.8 17.7 0.00 0.00 0.00 41 1017.0
20260503222004 20 297 8.0 17.7 0.00 0.00 0.00 42 1017.1
20260503221503 20 306 4.8 14.5 0.00 0.00 0.00 42 1017.1
20260503221003 20 300 9.7 14.5 0.00 0.00 0.00 42 1017.4
20260503220525 20 335 3.2 16.1 0.00 0.00 0.00 42 1017.4
20260503220004 20 287 4.8 16.1 0.00 0.00 0.00 42 1017.4
20260503215503 20 283 4.8 17.7 0.00 0.00 0.00 43 1017.2
20260503215003 20 305 8.0 20.9 0.00 0.00 0.00 42 1017.2
20260503214524 20 310 8.0 20.9 0.00 0.00 0.00 42 1017.4
20260503214003 20 294 8.0 24.1 0.00 0.00 0.00 42 1017.5
20260503213503 20 308 12.9 24.1 0.00 0.00 0.00 41 1017.5
20260503213004 20 305 6.4 17.7 0.00 0.00 0.00 42 1017.5
20260503212504 20 339 11.3 17.7 0.00 0.00 0.00 42 1017.7
20260503212003 20 272 8.0 17.7 0.00 0.00 0.00 42 1017.7
20260503211504 20 223 8.0 22.5 0.00 0.00 0.00 41 1017.8
20260503211004 20 295 6.4 22.5 0.00 0.00 0.00 42 1017.8
20260503210503 20 303 3.2 22.5 0.00 0.00 0.00 42 1017.8
20260503205503 20 274 6.4 16.1 0.00 0.00 0.00 44 1017.8
20260503205004 20 239 9.7 16.1 0.00 0.00 0.00 43 1017.9
20260503204503 20 291 9.7 20.9 0.00 0.00 0.00 43 1017.9
20260503204003 20 331 9.7 20.9 0.00 0.00 0.00 44 1018.0
20260503203525 20 293 8.0 16.1 0.00 0.00 0.00 44 1018.1
20260503203025 19 244 8.0 19.3 0.00 0.00 0.00 44 1018.1
20260503202504 19 296 6.4 20.9 0.00 0.00 0.00 44 1018.2
20260503202003 19 214 11.3 20.9 0.00 0.00 0.00 43 1018.3
20260503201503 19 269 4.8 16.1 0.00 0.00 0.00 43 1018.5
20260503201004 19 273 8.0 16.1 0.00 0.00 0.00 43 1018.7
20260503200546 19 234 8.0 20.9 0.00 0.00 0.00 43 1018.7
20260503200003 19 282 8.0 20.9 0.00 0.00 0.00 43 1018.8
20260503195525 19 246 6.4 16.1 0.00 0.00 0.00 46 1018.9
20260503195004 18 263 3.2 19.3 0.00 0.00 0.00 45 1018.9
20260503194503 18 294 6.4 19.3 0.00 0.00 0.00 46 1019.1
20260503194004 19 292 8.0 16.1 0.00 0.00 0.00 45 1019.2
20260503193503 19 271 3.2 16.1 0.00 0.00 0.00 45 1019.3
20260503193025 18 208 6.4 19.3 0.00 0.00 0.00 45 1019.4
20260503192504 18 269 9.7 19.3 0.00 0.00 0.00 46 1019.5
20260503192004 18 303 4.8 22.5 0.00 0.00 0.00 46 1019.5
20260503191504 18 330 11.3 22.5 0.00 0.00 0.00 47 1019.6
20260503191004 18 308 3.2 14.5 0.00 0.00 0.00 48 1019.7
20260503190503 18 200 6.4 16.1 0.00 0.00 0.00 48 1019.8
20260503190003 18 228 8.0 16.1 0.00 0.00 0.00 48 1019.8
20260503185504 18 264 0.0 17.7 0.00 0.00 0.00 47 1019.9
20260503185004 18 306 4.8 19.3 0.00 0.00 0.00 49 1020.0
20260503184503 18 212 11.3 20.9 0.00 0.00 0.00 49 1020.0
20260503184003 17 287 3.2 20.9 0.00 0.00 0.00 51 1020.0
20260503183504 17 293 3.2 16.1 0.00 0.00 0.00 51 1019.9
20260503183005 18 254 3.2 19.3 0.00 0.00 0.00 51 1020.1
20260503182505 17 226 11.3 19.3 0.00 0.00 0.00 51 1020.1
20260503182005 17 238 9.7 17.7 0.00 0.00 0.00 53 1020.1
20260503181504 17 175 6.4 17.7 0.00 0.00 0.00 52 1020.1
20260503181004 17 225 8.0 14.5 0.00 0.00 0.00 52 1020.2
20260503180524 17 236 3.2 14.5 0.00 0.00 0.00 52 1020.2
20260503180004 17 305 1.6 16.1 0.00 0.00 0.00 52 1020.2
20260503175504 17 340 9.7 20.9 0.00 0.00 0.00 52 1020.3
20260503175026 17 296 9.7 20.9 0.00 0.00 0.00 53 1020.4
20260503174505 17 225 8.0 17.7 0.00 0.00 0.00 53 1020.5
20260503174004 17 244 4.8 17.7 0.00 0.00 0.00 53 1020.5
20260503173503 17 193 4.8 16.1 0.00 0.00 0.00 54 1020.5
20260503173003 17 210 6.4 19.3 0.00 0.00 0.00 54 1020.6
20260503172504 17 228 8.0 19.3 0.00 0.00 0.00 55 1020.7
20260503172003 16 306 6.4 16.1 0.00 0.00 0.00 55 1020.8
20260503171524 16 307 1.6 14.5 0.00 0.00 0.00 55 1020.8
20260503171004 16 353 3.2 14.5 0.00 0.00 0.00 55 1020.9
20260503170504 16 295 4.8 17.7 0.00 0.00 0.00 53 1020.9
20260503151003 13 191 0.0 8.0 0.00 0.00 0.00 66 1021.7
20260503150503 13 205 4.8 8.0 0.00 0.00 0.00 67 1021.7